Martinsburg, WV

10:27 PM EST on December 08, 2019 (GMT -0500)
Eastern W Va Regional-Shepherd

Weather History for KMRB - November, 2019

Change the Weather History Date:

Tuesday, November 19, 2019

  Actual Average Record
Temperature  
Mean Temperature 40 °F 43 °F  
Max Temperature 52 °F 53 °F 81 °F (1928)
Min Temperature 28 °F 33 °F 15 °F (2014)
Degree Days  
Heating Degree Days 25 22  
Month to date heating degree days 476 358  
Since 1 July heating degree days 749 804  
Cooling Degree Days 0 0  
Month to date cooling degree days 0 0  
Year to date cooling degree days 1282 895  
Moisture  
Dew Point 34 °F    
Average Humidity 84    
Maximum Humidity 100    
Minimum Humidity 54    
Precipitation  
Precipitation 0.00 in 0.11 in 1.44 in (2003)
Month to date precipitation 0.18 1.94  
Year to date precipitation 39.94 34.80  
Sea Level Pressure  
Sea Level Pressure 29.80 in    
Wind  
Wind Speed 1 mph ()    
Max Wind Speed 9 mph    
Max Gust Speed 12 mph    
Visibility 4.7 miles    
Events Fog    
T = Trace of Precipitation, MM = Missing Value Source: Averaged Metar Reports

Daily Weather History Graph

Daily Weather History Graph

Search for Another Location

Airport or City:

Astronomy

Nov. 19, 2019 Rise Set
Actual Time 6:59 AM EST 4:54 PM EST
Civil Twilight 6:30 AM EST 5:23 PM EST
Nautical Twilight 5:58 AM EST 5:55 PM EST
Astronomical Twilight 5:26 AM EST 6:27 PM EST
Moon 11:47 PM EST (11/19) 1:09 PM EST (11/19)
Length of Visible Light 10h 52m
Length of Day
9h 54m
Waning Gibbous, 52% of the Moon is Illuminated
Nov 19
Waning Gibbous
Nov 19
Last Quarter
Nov 26
New
Dec 4
First Quarter
Dec 12
Full

Hourly Weather History & Observations

Time (EST) Temp. Windchill Dew Point Humidity Pressure Visibility Wind Dir Wind Speed Gust Speed Precip Events Conditions
12:53 AM 36.0 °F - 35.1 °F 97% 29.75 in 3.0 mi Calm Calm - N/A   Mostly Cloudy
1:28 AM 36.0 °F - 34.0 °F 93% 29.74 in 2.0 mi Calm Calm - N/A   Mostly Cloudy
1:53 AM 35.1 °F - 34.0 °F 96% 29.77 in 3.0 mi Calm Calm - N/A   Overcast
2:31 AM 35.1 °F - 34.0 °F 96% 29.75 in 2.5 mi Calm Calm - N/A   Overcast
2:53 AM 36.0 °F - 35.1 °F 97% 29.77 in 3.0 mi Calm Calm - N/A   Overcast
3:34 AM 35.1 °F - 34.0 °F 96% 29.75 in 2.5 mi Calm Calm - N/A   Overcast
3:53 AM 35.1 °F - 34.0 °F 96% 29.76 in 2.0 mi Calm Calm - N/A   Overcast
4:02 AM 35.1 °F - 33.1 °F 92% 29.75 in 0.8 mi Calm Calm - N/A   Overcast
4:22 AM 34.0 °F - 33.1 °F 96% 29.75 in 2.0 mi Calm Calm - N/A   Overcast
4:31 AM 34.0 °F - 33.1 °F 96% 29.75 in 1.0 mi Calm Calm - N/A   Mostly Cloudy
4:51 AM 32.0 °F - 30.2 °F 93% 29.75 in 0.8 mi Calm Calm - N/A   Partly Cloudy
4:53 AM 32.0 °F - 30.9 °F 96% 29.77 in 0.8 mi Calm Calm - N/A   Partly Cloudy
5:11 AM 33.1 °F - 32.0 °F 96% 29.76 in 2.0 mi Calm Calm - N/A   Partly Cloudy
5:16 AM 30.9 °F - 30.9 °F 100% 29.76 in 1.0 mi Calm Calm - N/A   Mist
5:24 AM 32.0 °F - 30.9 °F 96% 29.76 in 0.5 mi Calm Calm - N/A Fog Fog
5:53 AM 30.9 °F - 30.9 °F 100% 29.79 in 0.2 mi Calm Calm - N/A Fog Light Freezing Fog
6:41 AM 28.9 °F 23.9 °F 28.0 °F 96% 29.79 in 0.5 mi SSW 4.6 mph - N/A Fog Light Freezing Fog
6:49 AM 28.4 °F 22.2 °F 28.4 °F 100% 29.79 in 2.0 mi SW 5.8 mph - N/A   Mostly Cloudy
6:53 AM 30.0 °F 23.2 °F 28.9 °F 96% 29.81 in 2.5 mi SW 6.9 mph - N/A   Mostly Cloudy
7:30 AM 30.9 °F - 30.0 °F 96% 29.80 in 1.5 mi Calm Calm - N/A   Partly Cloudy
7:53 AM 30.9 °F - 30.9 °F 100% 29.82 in 2.0 mi Calm Calm - N/A   Clear
8:14 AM 33.1 °F 27.7 °F 32.0 °F 96% 29.81 in 1.8 mi SE 5.8 mph - N/A   Clear
8:25 AM 34.0 °F - 34.0 °F 100% 29.81 in 2.0 mi Calm Calm - N/A   Clear
8:39 AM 35.1 °F - 35.1 °F 100% 29.82 in 3.0 mi Calm Calm - N/A   Clear
8:53 AM 35.1 °F 32.2 °F 33.1 °F 92% 29.84 in 3.0 mi SE 3.5 mph - N/A   Clear
9:53 AM 43.0 °F - 37.0 °F 80% 29.83 in 8.0 mi Calm Calm - N/A   Clear
10:53 AM 46.0 °F 44.8 °F 37.9 °F 73% 29.83 in 10.0 mi SSE 3.5 mph - N/A   Clear
11:53 AM 50.0 °F - 37.9 °F 63% 29.81 in 10.0 mi Variable 5.8 mph - N/A   Clear
12:53 PM 51.1 °F - 37.0 °F 59% 29.80 in 10.0 mi SSE 4.6 mph - N/A   Clear
1:53 PM 52.0 °F - 37.0 °F 57% 29.80 in 10.0 mi South 6.9 mph - N/A   Clear
2:53 PM 51.1 °F - 35.1 °F 54% 29.80 in 10.0 mi SSW 6.9 mph - N/A   Partly Cloudy
3:53 PM 50.0 °F - 35.1 °F 57% 29.81 in 10.0 mi SSW 4.6 mph - N/A   Overcast
4:53 PM 50.0 °F - 36.0 °F 59% 29.82 in 10.0 mi Calm Calm - N/A   Overcast
5:53 PM 46.9 °F - 37.0 °F 68% 29.85 in 10.0 mi West 4.6 mph - N/A   Overcast
6:53 PM 48.0 °F - 36.0 °F 63% 29.85 in 10.0 mi Calm Calm - N/A   Overcast
7:53 PM 48.0 °F - 34.0 °F 58% 29.86 in 10.0 mi NW 4.6 mph - N/A   Overcast
8:53 PM 48.0 °F - 33.1 °F 56% 29.87 in 10.0 mi NNW 8.1 mph - N/A   Overcast
9:53 PM 48.0 °F - 34.0 °F 58% 29.88 in 10.0 mi NNW 3.5 mph - N/A   Overcast
10:53 PM 46.9 °F - 34.0 °F 61% 29.89 in 9.0 mi North 4.6 mph - N/A   Overcast